Location: MAC-Johnson Site
(33.6264°N, 81.2093°W)
Time: 20:52:57
(UTC-04:00)

BlueWalker 3 - Pass Details

Date: 14 September 2024
Orbit: 472 x 485 km, 53.2° (Epoch: 10 October)

Event Time Altitude Azimuth Distance (km) Brightness Sun altitude
Rises 20:20:17 0° 323° (NW) 2,544 6.3 -10.8°
Reaches altitude 10° 20:22:35 10° 332° (NNW) 1,665 5.1 -11.3°
Maximum altitude 20:26:04 36° 41° (NE) 790 2.7 -12.0°
Enters shadow 20:28:08 20° 95° (E) 1,172 3.2 -12.4°
